Home > Weather > Wuhan > Past weeks

Flag for China Weather for the Past 2 Weeks in Wuhan, Hubei, China

Now
73 °F

Clear.


Feels Like: 72 °F
Forecast: 69 / 82 °F
Wind: 8 mph from Southeast

Location: Wuhan Airport

Current Time: May 5, 2016 at 12:27:12 AM

Latest Report: May 5, 2016 at 12:00 AM


Visibility: 10 mi

Pressure: 29.68 "Hg

Humidity: 89%

Dew Point: 70 °F

Location of WuhanLocation

Historic Weather in Wuhan — Graph

°F

Wuhan Temperature Yesterday

Maximum temperature yesterday: 84 °F (at 3:00 PM)
Minimum temperature yesterday: 66 °F (at 5:00 AM)
Average temperature yesterday: 76 °F

High & Low Weather Summary for the Past Weeks

 TemperatureHumidityPressure
High86 °F (Apr 30, 2:00 PM)100% (Apr 20, 3:00 AM)30.04 "Hg (Apr 20, 3:00 AM)
Low57 °F (Apr 28, 6:00 AM)37% (Apr 29, 3:00 PM)29.59 "Hg (May 2, 3:00 AM)
Average70 °F77%29.84 "Hg
* Reported Apr 19 11:00 PM — May 4 11:00 PM, Wuhan, Weather by CustomWeather, © 2016

Note: Actual official high and low records may vary slightly from our data, if they occured in-between our weather recording intervals... More about our weather records

Advertising

Wuhan Weather History for the Previous 24 Hours

Scroll right to see more
 ConditionsComfort  
Time TempWeatherWind HumidityBarometerVisibility
11:00 PM
Wed, May 4
73 °FClear.15 mph83%29.71 "Hg10 mi
10:00 PM75 °FClear.10 mph83%29.74 "Hg10 mi
9:00 PM77 °FPassing clouds.6 mph79%29.71 "HgN/A
8:00 PM77 °FPassing clouds.15 mph79%29.71 "HgN/A
7:00 PM79 °FScattered clouds.8 mph74%29.71 "HgN/A
6:00 PM81 °FPassing clouds.8 mph62%29.68 "HgN/A
5:00 PM82 °FPartly sunny.6 mph58%29.68 "HgN/A
4:00 PM82 °FScattered clouds.6 mph58%29.68 "HgN/A
3:00 PM84 °FPassing clouds.8 mph55%29.71 "HgN/A
2:00 PM82 °FPassing clouds.8 mph55%29.71 "HgN/A
1:00 PM82 °FSunny.8 mph55%29.74 "Hg10 mi
12:00 PM82 °FPassing clouds.8 mph51%29.77 "HgN/A
11:00 AM79 °FClear.10 mph58%29.80 "Hg5 mi
10:00 AM77 °FClear.10 mph57%29.80 "Hg5 mi
9:00 AM73 °FClear.10 mph65%29.80 "Hg4 mi
8:00 AM72 °FClear.10 mph65%29.80 "Hg4 mi
7:00 AM70 °FClear.8 mph69%29.80 "Hg4 mi
6:00 AM68 °FClear.8 mph73%29.80 "Hg4 mi
5:00 AM66 °FClear.10 mph78%29.80 "Hg10 mi
4:00 AM68 °FClear.8 mph73%29.80 "Hg10 mi
3:00 AM70 °FClear.8 mph60%29.80 "Hg10 mi
2:00 AM70 °FClear.3 mph60%29.80 "Hg10 mi
1:00 AM72 °FClear.3 mph61%29.83 "Hg10 mi
12:00 AM72 °FClear.3 mph69%29.86 "Hg10 mi
Weather by CustomWeather, © 2016

See weather overviewHow to use our weather pages